Home > Time Zones > World Clock > Weather > Fiji > Nadi > Past weeks

Flag for Fiji Weather past 2 weeks in Nadi, Fiji

Now
79 °F

Scattered showers. Broken clouds.


Feels Like: 83 °F
Forecast: 80 / 89 °F
Wind: 3 mph from East

Location: Nandi

Current Time: Mar 4, 2015 at 7:03:17 PM

Latest Report: Mar 4, 2015 at 6:00 PM


Visibility: N/A

Pressure: 29.71 "Hg

Humidity: 94%

Dew point: 77 °F

Location of NadiLocation

Historic Weather in Nadi — Graph

°F

Nadi temperature yesterday

Maximum temperature yesterday: 91 °F (at 11:00 AM)
Minimum temperature yesterday: 75 °F (at 6:00 AM)
Average temperature yesterday: 83 °F

Past Weeks' High & Low Weather Summary

 TemperatureHumidityPressure
High91 °F (Feb 22, 12:00 PM)100% (Feb 17, 11:00 PM)29.89 "Hg (Feb 17, 11:00 PM)
Low73 °F (Feb 18, 6:00 AM)59% (Mar 3, 12:00 PM)29.65 "Hg (Feb 24, 4:00 PM)
Average81 °F86%29.74 "Hg
* Reported Feb 17 6:00 PM — Mar 4 6:00 PM, Nadi, Weather by CustomWeather, © 2015

Note: Actual official high and low records may vary slightly from our data, if they occured in-between our weather recording intervals... More about our weather records

Advertising

Nadi weather history for previous 24 hours

 ConditionsComfort  
Time TempWeatherWind HumidityBarometerVisibility
6:00 PM
Wed, Mar 4
79 °FScattered showers. Broken clouds.3 mph94%29.71 "HgN/A
5:00 PM79 °FThunderstorms. Broken clouds.6 mph94%29.71 "HgN/A
4:00 PM79 °FThunderstorms. Broken clouds.13 mph100%29.71 "Hg4 mi
3:00 PM88 °FThunderstorms. Broken clouds.9 mph75%29.68 "HgN/A
2:00 PM90 °FScattered clouds.13 mph71%29.68 "HgN/A
1:00 PM90 °FScattered clouds.12 mph71%29.71 "HgN/A
12:00 PM90 °FScattered clouds.13 mph67%29.71 "HgN/A
11:00 AM90 °FScattered clouds.6 mph67%29.74 "HgN/A
10:00 AM88 °FPassing clouds.5 mph70%29.74 "HgN/A
9:00 AM88 °FPassing clouds.10 mph66%29.77 "HgN/A
8:00 AM82 °FScattered clouds.3 mph84%29.74 "HgN/A
7:00 AM77 °FScattered clouds.2 mph94%29.74 "HgN/A
6:00 AM77 °FPassing clouds.2 mph94%29.74 "HgN/A
5:00 AM77 °FPassing clouds.2 mph100%29.71 "HgN/A
4:00 AM77 °FPassing clouds.2 mph100%29.74 "HgN/A
3:00 AM79 °FPassing clouds.2 mph94%29.74 "HgN/A
2:00 AM79 °FPassing clouds.3 mph94%29.74 "HgN/A
1:00 AM79 °FPassing clouds.2 mph94%29.77 "HgN/A
12:00 AM79 °FPassing clouds.7 mph94%29.80 "HgN/A
11:00 PM
Tue, Mar 3
79 °FPassing clouds.5 mph94%29.80 "HgN/A
10:00 PM79 °FPartly cloudy.3 mph100%29.80 "HgN/A
9:00 PM81 °FPartly cloudy.5 mph94%29.80 "HgN/A
8:00 PM81 °FSprinkles. Partly cloudy.5 mph94%29.77 "HgN/A
7:00 PM82 °FThunderstorms. Partly cloudy.10 mph89%29.77 "HgN/A
Weather by CustomWeather, © 2015

See weather overviewHow to use our weather pages